Theta_e
289 288 288 286 287 286 286 285 283 283 282 280 280 280 280 280 279 279 279 278 278 279
288 288 287 285 285 286 285 285 282 283 281 280 280 280 279 279 278 278 278 278 278 278
288 287 286 283 284 285 284 284 282 282 281 280 280 279 279 278 278 277 277 278 277 277
286 287 286 284 284 284 283 283 282 282 281 280 279 279 278 277 277 276 276 276 277 276
286 286 285 285 284 284 283 282 282 281 281 280 279 278 278 276 276 275 275 275 275 275
285 284 285 285 284 283 282 282 281 280 280 279 279 278 277 277 276 275 275 275 274 274
285 284 285 285 284 282 282 281 280 280 280 279 278 277 276 276 275 274 274 274 274 274
285 285 285 284 283 282 282 281 280 279 278 278 277 276 276 275 274 274 273 273 274 273
285 284 283 283 282 281 280 280 279 278 277 276 276 281 281 277 274 274 273 272 273 274
283 283 283 282 281 280 279 279 278 277 276 275 276 282 282 280 275 274 273 273 274 274
281 282 280 279 279 279 278 277 277 277 276 276 276 283 283 280 275 274 274 275 275 274
279 280 278 278 277 277 277 276 277 277 276 276 275 283 283 280 275 275 274 275 275 275
277 276 277 278 276 277 277 276 277 276 276 276 275 283 283 281 275 274 274 274 275 276
275 276 276 274 274 275 275 275 274 274 274 275 275 280 283 283 276 274 273 273 273 274
Wind_Speed
15 10 10 12 10 11 12 12 12 13 12 10 11 9 8 6 5 6 5 7 4 3
14 13 12 9 9 10 10 10 14 15 14 12 12 11 10 7 8 7 6 6 6 4
13 14 11 9 13 13 10 12 14 15 14 14 13 12 11 7 7 8 6 5 7 5
13 14 13 13 14 14 13 14 16 16 15 16 15 13 13 11 11 10 8 5 7 7
14 13 15 15 16 15 16 15 16 16 16 16 16 15 15 14 12 12 11 10 8 8
14 13 16 17 15 15 15 16 15 16 18 17 17 16 15 14 12 11 11 11 11 10
15 19 18 15 14 15 15 16 16 17 17 17 18 17 16 15 13 12 10 10 9 9
14 12 13 13 15 15 16 16 16 16 14 15 15 14 17 16 14 13 10 9 8 7
12 12 14 14 14 15 15 15 16 17 17 17 12 25 29 20 14 13 12 11 10 9
9 12 14 13 14 16 15 14 16 15 16 17 16 30 31 27 13 14 13 13 12 10
6 8 7 11 14 14 14 17 16 15 16 16 14 31 31 29 14 12 13 13 13 12
5 6 7 11 11 11 12 12 13 14 16 17 15 32 31 26 14 13 14 13 13 12
4 5 8 9 10 8 8 10 9 10 12 14 14 30 30 25 11 13 10 11 11 16
3 4 5 4 3 5 7 7 7 10 10 12 14 20 32 32 13 11 11 10 10 7
Wind_Direction
199 196 199 188 182 185 188 189 177 182 181 172 170 170 172 179 174 166 172 177 174 162
191 195 198 190 182 184 180 173 171 181 179 178 176 173 173 179 180 172 170 176 171 172
202 192 186 173 189 187 179 169 169 181 183 179 178 173 174 174 172 174 183 175 174 175
198 198 187 190 191 190 173 176 176 181 183 182 179 176 178 180 173 179 174 169 182 183
204 198 201 202 198 186 183 181 179 176 184 185 182 178 182 182 179 179 179 179 175 186
209 198 208 208 199 190 182 184 181 178 184 186 183 180 183 183 176 180 182 179 180 181
207 207 208 205 194 191 187 184 186 188 187 185 181 179 177 176 173 179 182 178 182 179
233 215 201 197 192 191 191 192 185 178 182 182 184 181 175 174 174 174 174 172 176 180
220 213 206 197 190 190 189 187 182 187 181 180 186 187 181 169 168 169 172 177 178 180
217 210 208 190 184 187 188 182 190 187 180 183 186 186 183 175 166 169 174 178 177 177
222 218 198 192 191 188 182 188 186 187 184 183 187 186 182 174 163 172 174 175 170 175
228 212 194 205 195 191 181 191 191 185 183 186 180 184 181 172 164 177 176 171 171 179
217 223 210 214 198 188 180 189 182 179 182 178 171 185 183 176 167 173 168 166 178 185
256 215 233 191 171 164 168 163 171 168 170 170 173 185 186 186 174 170 174 168 174 186